This is the latest recevied weather packets stored in our database for station/object W8LMG. If no packets are shown the sender has not sent any weather packets the latest 10 day(s).
| Time | Temp. | Humidity | Pressure | Rain* | Wind** | Luminosity | Snow |
|---|---|---|---|---|---|---|---|
| 1788555139 | 27.78° C | 66% | 1019 hPa | 0 mm | - | 14 W/m² | - |
| 1788554843 | 28.89° C | 71% | 1018.6 hPa | 0 mm | - | 29 W/m² | - |
| 1788554531 | 28.89° C | 74% | 1018.3 hPa | 0 mm | - | 73 W/m² | - |
| 1788554227 | 29.44° C | 70% | 1018.2 hPa | 0 mm | - | 90 W/m² | - |
| 1788553924 | 30° C | 69% | 1017.7 hPa | 0 mm | - | 96 W/m² | - |
| 1788553619 | 30° C | 67% | 1017.4 hPa | 0 mm | - | 115 W/m² | - |
| 1788553310 | 30° C | 59% | 1017.2 hPa | 0 mm | - | 120 W/m² | - |
| 1788553010 | 30° C | 63% | 1017.5 hPa | 0 mm | - | 120 W/m² | - |
| 1788552704 | 30.56° C | 61% | 1017.3 hPa | 0 mm | - | 120 W/m² | - |
| 1788552404 | 30.56° C | 60% | 1017.4 hPa | 0 mm | - | 126 W/m² | - |
| 1788552099 | 31.11° C | 66% | 1017.1 hPa | 0 mm | - | 139 W/m² | - |
| 1788551798 | 31.67° C | 55% | 1017.3 hPa | 0 mm | - | 152 W/m² | - |
| 1788551492 | 31.67° C | 53% | 1017.5 hPa | 0 mm | - | 314 W/m² | - |
| 1788551191 | 32.22° C | 56% | 1017.6 hPa | 0 mm | - | 348 W/m² | - |
| 1788550887 | 32.78° C | 54% | 1017.8 hPa | 0 mm | - | 424 W/m² | - |
| 1788550587 | 32.22° C | 53% | 1018 hPa | 0 mm | - | 493 W/m² | - |
| 1788550284 | 32.22° C | 55% | 1018 hPa | 0 mm | - | 471 W/m² | - |
| 1788549983 | 32.22° C | 63% | 1018.1 hPa | 0 mm | - | 477 W/m² | - |
| 1788549679 | 32.22° C | 51% | 1018.1 hPa | 0 mm | - | 469 W/m² | - |
| 1788549375 | 32.78° C | 59% | 1018.1 hPa | 0 mm | - | 471 W/m² | - |
| 1788549072 | 31.67° C | 55% | 1018 hPa | 0 mm | - | 492 W/m² | - |
| 1788548767 | 32.22° C | 56% | 1017.8 hPa | 0 mm | - | 494 W/m² | - |
| 1788548464 | 32.22° C | 53% | 1017.9 hPa | 0 mm | - | 506 W/m² | - |
| 1788548160 | 31.11° C | 59% | 1017.8 hPa | 0 mm | - | 510 W/m² | - |
| 1788547860 | 31.67° C | 57% | 1017.9 hPa | 0 mm | - | 497 W/m² | - |
* Rain latest hour (hover to see other rain measurements)
** Current wind speed in m/s (hover to see current wind gust speed)